Simultaneous Nadir Overpasses (SNOs) Predictions

Prediction of SNOs between GOES-17 and METOP-C Satellite Orbit:

Table of predicted SNOs for the next 14.0 days since TLE Epoch: 6/3/2023
Index Date Time (GOES-17) GOES-17 Lat,Lon METOP-C Lat,Lon Distance(km) Time Diff (sec)
1 06/03/2023 04:25:17 -0.00,-104.70 0.15,-104.14 64.70 80
2 06/04/2023 16:44:06 -0.01,-104.74 0.90,-108.68 450.15 80
3 06/05/2023 16:26:05 -0.01,-104.73 -0.21,-103.68 119.05 80
4 06/07/2023 04:45:06 0.01,-104.69 -0.78,-108.29 409.87 80
5 06/08/2023 04:21:45 0.01,-104.68 0.34,-103.29 159.10 80
6 06/09/2023 16:40:33 -0.01,-104.72 0.70,-107.84 355.80 80
7 06/10/2023 16:22:33 -0.01,-104.72 -0.43,-102.84 213.74 80
8 06/12/2023 04:41:32 0.01,-104.68 -0.61,-107.43 314.12 80
9 06/13/2023 04:18:12 0.01,-104.68 0.52,-102.44 255.30 80
10 06/14/2023 16:37:00 -0.01,-104.71 0.51,-106.99 259.46 80
11 06/15/2023 16:19:00 -0.01,-104.72 -0.61,-101.99 310.24 80
